Time,TemperatureF,DewpointF,PressureIn,WindDirection,WindDirectionDegrees,WindSpeedMPH,WindSpeedGustMPH,Humidity,HourlyPrecipIn,Conditions,Clouds,dailyrainin,SoftwareType,DateUTC
2013-06-04 00:02:00,61.0,47.9,29.98,NE,48,2.5,5.4,62,0.00,,,0.00,WUHU21623XXSP,2013-06-04 05:02:00,
2013-06-04 00:07:00,61.0,47.9,29.97,NE,51,2.2,5.4,62,0.00,,,0.00,WUHU21623XXSP,2013-06-04 05:07:00,
2013-06-04 00:12:00,61.0,47.9,29.97,ENE,67,2.3,7.4,62,0.00,,,0.00,WUHU21623XXSP,2013-06-04 05:12:00,
2013-06-04 00:17:00,61.0,48.3,29.96,ENE,65,2.8,7.4,63,0.00,,,0.00,WUHU21623XXSP,2013-06-04 05:17:00,
2013-06-04 00:22:00,61.0,48.3,29.97,East,89,2.5,5.1,63,0.00,,,0.00,WUHU21623XXSP,2013-06-04 05:22:00,
2013-06-04 00:27:00,61.0,48.3,29.97,NE,41,2.0,4.3,63,0.00,,,0.00,WUHU21623XXSP,2013-06-04 05:27:00,
2013-06-04 00:32:00,61.0,48.3,29.97,ENE,71,2.1,6.3,63,0.00,,,0.00,WUHU21623XXSP,2013-06-04 05:32:00,
2013-06-04 00:37:00,61.0,48.3,29.96,NE,48,1.8,8.7,63,0.00,,,0.00,WUHU21623XXSP,2013-06-04 05:37:00,
2013-06-04 00:42:00,61.0,48.3,29.96,NE,45,3.6,8.7,63,0.00,,,0.00,WUHU21623XXSP,2013-06-04 05:42:00,
2013-06-04 00:47:00,61.0,48.3,29.95,ENE,67,2.7,4.0,63,0.00,,,0.00,WUHU21623XXSP,2013-06-04 05:47:00,
2013-06-04 00:52:00,61.0,48.3,29.95,ENE,67,3.1,4.0,63,0.00,,,0.00,WUHU21623XXSP,2013-06-04 05:52:00,
2013-06-04 00:57:00,60.8,48.2,29.95,ENE,75,2.2,3.6,63,0.00,,,0.00,WUHU21623XXSP,2013-06-04 05:57:00,
2013-06-04 01:02:00,60.6,47.6,29.95,ENE,57,2.3,3.6,62,0.00,,,0.00,WUHU21623XXSP,2013-06-04 06:02:00,
2013-06-04 01:07:00,60.6,47.6,29.95,NE,45,3.1,3.6,62,0.00,,,0.00,WUHU21623XXSP,2013-06-04 06:07:00,
2013-06-04 01:12:00,60.6,47.6,29.94,East,96,1.4,3.6,62,0.00,,,0.00,WUHU21623XXSP,2013-06-04 06:12:00,
2013-06-04 01:17:00,60.6,47.6,29.94,WSW,247,2.7,6.0,62,0.00,,,0.00,WUHU21623XXSP,2013-06-04 06:17:00,
2013-06-04 01:22:00,60.6,47.2,29.94,ENE,67,2.4,6.0,61,0.00,,,0.00,WUHU21623XXSP,2013-06-04 06:22:00,
2013-06-04 01:27:00,60.4,46.6,29.93,NE,45,0.9,4.0,60,0.00,,,0.00,WUHU21623XXSP,2013-06-04 06:27:00,
2013-06-04 01:32:00,60.4,46.6,29.93,SE,132,2.7,3.8,60,0.00,,,0.00,WUHU21623XXSP,2013-06-04 06:32:00,
2013-06-04 01:37:00,60.1,46.2,29.94,NNE,22,1.6,4.0,60,0.00,,,0.00,WUHU21623XXSP,2013-06-04 06:37:00,
2013-06-04 01:42:00,60.1,45.7,29.94,East,79,1.4,4.0,59,0.00,,,0.00,WUHU21623XXSP,2013-06-04 06:42:00,
2013-06-04 01:47:00,59.9,45.6,29.94,SW,225,0.0,3.4,59,0.00,,,0.00,WUHU21623XXSP,2013-06-04 06:47:00,
2013-06-04 01:52:00,59.7,44.9,29.94,South,179,1.1,3.4,58,0.00,,,0.00,WUHU21623XXSP,2013-06-04 06:52:00,
2013-06-04 01:57:00,59.5,44.7,29.94,East,90,0.0,1.6,58,0.00,,,0.00,WUHU21623XXSP,2013-06-04 06:57:00,
2013-06-04 02:02:00,59.5,44.3,29.95,North,0,0.0,1.3,57,0.00,,,0.00,WUHU21623XXSP,2013-06-04 07:02:00,
2013-06-04 02:07:00,59.4,44.5,29.96,NE,45,1.1,1.8,58,0.00,,,0.00,WUHU21623XXSP,2013-06-04 07:07:00,
2013-06-04 02:12:00,59.2,44.4,29.97,ESE,103,0.9,2.0,58,0.00,,,0.00,WUHU21623XXSP,2013-06-04 07:12:00,
2013-06-04 02:17:00,59.0,44.2,29.97,NE,45,0.7,2.0,58,0.00,,,0.00,WUHU21623XXSP,2013-06-04 07:17:00,
2013-06-04 02:22:00,58.8,44.0,29.98,ENE,67,0.0,0.9,58,0.00,,,0.00,WUHU21623XXSP,2013-06-04 07:22:00,
2013-06-04 02:28:00,58.8,44.0,29.98,NE,45,0.0,1.3,58,0.00,,,0.00,WUHU21623XXSP,2013-06-04 07:28:00,
2013-06-04 02:33:00,58.8,44.0,29.98,South,180,0.0,1.3,58,0.00,,,0.00,WUHU21623XXSP,2013-06-04 07:33:00,
2013-06-04 02:38:00,58.8,44.0,29.98,ENE,67,0.0,0.0,58,0.00,,,0.00,WUHU21623XXSP,2013-06-04 07:38:00,
2013-06-04 02:43:00,58.8,43.6,29.98,ESE,112,0.0,0.0,57,0.00,,,0.00,WUHU21623XXSP,2013-06-04 07:43:00,
2013-06-04 02:48:00,58.8,43.6,29.98,NNW,337,0.0,0.0,57,0.00,,,0.00,WUHU21623XXSP,2013-06-04 07:48:00,
2013-06-04 02:53:00,58.8,43.6,29.98,NNW,337,0.0,0.0,57,0.00,,,0.00,WUHU21623XXSP,2013-06-04 07:53:00,
2013-06-04 02:58:00,58.8,43.6,29.99,NNW,337,0.0,0.0,57,0.00,,,0.00,WUHU21623XXSP,2013-06-04 07:58:00,
2013-06-04 03:03:00,58.8,44.0,30.00,ESE,112,0.0,0.0,58,0.00,,,0.00,WUHU21623XXSP,2013-06-04 08:03:00,
2013-06-04 03:08:00,58.8,44.0,30.00,East,90,0.0,0.0,58,0.00,,,0.00,WUHU21623XXSP,2013-06-04 08:08:00,
2013-06-04 03:13:00,58.8,44.0,30.00,ESE,112,0.0,0.0,58,0.00,,,0.00,WUHU21623XXSP,2013-06-04 08:13:00,
2013-06-04 03:18:00,58.8,44.0,29.99,South,180,0.0,0.0,58,0.00,,,0.00,WUHU21623XXSP,2013-06-04 08:18:00,
2013-06-04 03:23:00,58.8,44.0,30.00,East,90,0.0,0.0,58,0.00,,,0.00,WUHU21623XXSP,2013-06-04 08:23:00,
2013-06-04 03:28:00,58.8,44.0,30.00,East,90,0.0,0.0,58,0.00,,,0.00,WUHU21623XXSP,2013-06-04 08:28:00,
2013-06-04 03:33:00,58.8,44.0,30.00,ENE,67,0.0,0.0,58,0.00,,,0.00,WUHU21623XXSP,2013-06-04 08:33:00,
2013-06-04 03:38:00,58.8,44.0,30.00,NE,45,0.0,0.0,58,0.00,,,0.00,WUHU21623XXSP,2013-06-04 08:38:00,
2013-06-04 03:43:00,58.6,43.9,30.00,NE,45,1.1,1.1,58,0.00,,,0.00,WUHU21623XXSP,2013-06-04 08:43:00,
2013-06-04 03:48:00,58.3,43.6,30.00,NNE,28,0.9,1.3,58,0.00,,,0.00,WUHU21623XXSP,2013-06-04 08:48:00,
2013-06-04 03:53:00,58.1,43.4,30.00,NE,45,0.9,1.3,58,0.00,,,0.00,WUHU21623XXSP,2013-06-04 08:53:00,
2013-06-04 03:58:00,58.1,43.9,29.99,ENE,63,1.1,1.6,59,0.00,,,0.00,WUHU21623XXSP,2013-06-04 08:58:00,
2013-06-04 04:03:00,57.9,43.7,29.99,ENE,73,1.4,2.5,59,0.00,,,0.00,WUHU21623XXSP,2013-06-04 09:03:00,
2013-06-04 04:08:00,57.9,43.7,29.98,NE,45,1.0,2.9,59,0.00,,,0.00,WUHU21623XXSP,2013-06-04 09:08:00,
2013-06-04 04:13:00,57.7,43.5,29.98,ENE,57,1.2,2.9,59,0.00,,,0.00,WUHU21623XXSP,2013-06-04 09:13:00,
2013-06-04 04:18:00,57.7,43.5,29.99,NE,56,1.6,2.5,59,0.00,,,0.00,WUHU21623XXSP,2013-06-04 09:18:00,
2013-06-04 04:23:00,57.6,43.4,29.99,East,90,0.0,2.5,59,0.00,,,0.00,WUHU21623XXSP,2013-06-04 09:23:00,
2013-06-04 04:28:00,57.4,43.7,29.98,East,89,0.8,3.6,60,0.00,,,0.00,WUHU21623XXSP,2013-06-04 09:28:00,
2013-06-04 04:33:00,57.4,43.7,29.98,SE,135,0.0,3.6,60,0.00,,,0.00,WUHU21623XXSP,2013-06-04 09:33:00,
2013-06-04 04:38:00,57.4,43.7,29.98,NE,45,0.0,1.3,60,0.00,,,0.00,WUHU21623XXSP,2013-06-04 09:38:00,
2013-06-04 04:43:00,57.0,43.7,29.97,NNE,22,0.9,1.3,61,0.00,,,0.00,WUHU21623XXSP,2013-06-04 09:43:00,
2013-06-04 04:48:00,57.0,43.7,29.98,South,180,0.0,0.9,61,0.00,,,0.00,WUHU21623XXSP,2013-06-04 09:48:00,
2013-06-04 04:53:00,57.0,43.7,29.98,North,0,0.0,0.0,61,0.00,,,0.00,WUHU21623XXSP,2013-06-04 09:53:00,
2013-06-04 04:58:00,57.0,43.7,29.98,North,0,0.0,0.0,61,0.00,,,0.00,WUHU21623XXSP,2013-06-04 09:58:00,
2013-06-04 05:03:00,57.0,43.7,29.97,ESE,112,0.0,0.0,61,0.00,,,0.00,WUHU21623XXSP,2013-06-04 10:03:00,
2013-06-04 05:08:00,57.2,43.9,29.97,East,90,0.0,0.0,61,0.00,,,0.00,WUHU21623XXSP,2013-06-04 10:08:00,
2013-06-04 05:13:00,57.4,43.7,29.97,NNW,337,0.0,2.2,60,0.00,,,0.00,WUHU21623XXSP,2013-06-04 10:13:00,
2013-06-04 05:18:00,57.4,43.7,29.96,WSW,247,0.0,2.2,60,0.00,,,0.00,WUHU21623XXSP,2013-06-04 10:18:00,
2013-06-04 05:23:00,57.6,43.8,29.96,East,90,0.7,2.9,60,0.00,,,0.00,WUHU21623XXSP,2013-06-04 10:23:00,
2013-06-04 05:28:00,57.6,43.8,29.95,NNE,22,0.0,2.9,60,0.00,,,0.00,WUHU21623XXSP,2013-06-04 10:28:00,
2013-06-04 05:33:00,57.7,44.0,29.96,West,270,0.0,1.1,60,0.00,,,0.00,WUHU21623XXSP,2013-06-04 10:33:00,
2013-06-04 05:38:00,57.7,44.0,29.96,North,0,0.0,0.0,60,0.00,,,0.00,WUHU21623XXSP,2013-06-04 10:38:00,
2013-06-04 05:44:00,57.7,44.0,29.95,NNW,337,0.0,0.0,60,0.00,,,0.00,WUHU21623XXSP,2013-06-04 10:44:00,
2013-06-04 05:49:00,57.7,44.0,29.95,SSW,202,0.0,0.0,60,0.00,,,0.00,WUHU21623XXSP,2013-06-04 10:49:00,
2013-06-04 05:54:00,57.7,44.4,29.94,ENE,67,0.7,1.6,61,0.00,,,0.00,WUHU21623XXSP,2013-06-04 10:54:00,
2013-06-04 05:59:00,57.7,44.4,29.94,East,89,1.3,1.6,61,0.00,,,0.00,WUHU21623XXSP,2013-06-04 10:59:00,
2013-06-04 06:04:00,57.7,44.4,29.93,ENE,57,1.9,2.0,61,0.00,,,0.00,WUHU21623XXSP,2013-06-04 11:04:00,
2013-06-04 06:09:00,57.9,44.6,29.93,NW,324,1.0,2.0,61,0.00,,,0.00,WUHU21623XXSP,2013-06-04 11:09:00,
2013-06-04 06:14:00,57.9,44.6,29.93,WNW,292,0.0,1.3,61,0.00,,,0.00,WUHU21623XXSP,2013-06-04 11:14:00,
2013-06-04 06:20:00,57.9,44.6,29.93,NE,53,0.8,2.0,61,0.00,,,0.00,WUHU21623XXSP,2013-06-04 11:20:00,
2013-06-04 06:25:00,57.9,44.6,29.94,NE,54,1.5,3.8,61,0.00,,,0.00,WUHU21623XXSP,2013-06-04 11:25:00,
2013-06-04 06:30:00,57.9,45.0,29.95,NE,37,1.6,3.8,62,0.00,,,0.00,WUHU21623XXSP,2013-06-04 11:30:00,
2013-06-04 06:35:00,57.9,45.0,29.95,West,270,0.0,2.9,62,0.00,,,0.00,WUHU21623XXSP,2013-06-04 11:35:00,
2013-06-04 06:40:00,58.1,45.1,29.96,ENE,75,1.4,2.2,62,0.00,,,0.00,WUHU21623XXSP,2013-06-04 11:40:00,
2013-06-04 06:45:00,58.1,45.1,29.97,WNW,292,0.0,2.2,62,0.00,,,0.00,WUHU21623XXSP,2013-06-04 11:45:00,
2013-06-04 06:50:00,58.1,45.1,29.98,North,0,0.0,0.0,62,0.00,,,0.00,WUHU21623XXSP,2013-06-04 11:50:00,
2013-06-04 06:55:00,58.1,45.5,29.97,SE,135,0.0,0.0,63,0.00,,,0.00,WUHU21623XXSP,2013-06-04 11:55:00,
2013-06-04 07:00:00,58.1,46.0,29.98,ESE,112,0.0,0.0,64,0.00,,,0.00,WUHU21623XXSP,2013-06-04 12:00:00,
2013-06-04 07:05:00,58.3,46.1,29.98,SE,135,0.0,0.0,64,0.00,,,0.00,WUHU21623XXSP,2013-06-04 12:05:00,
2013-06-04 07:10:00,58.3,46.5,29.97,East,90,0.0,0.0,65,0.00,,,0.00,WUHU21623XXSP,2013-06-04 12:10:00,
2013-06-04 07:15:00,58.1,46.3,29.96,NE,45,0.7,0.7,65,0.00,,,0.00,WUHU21623XXSP,2013-06-04 12:15:00,
2013-06-04 07:20:00,58.1,46.3,29.95,NE,45,0.0,0.7,65,0.00,,,0.00,WUHU21623XXSP,2013-06-04 12:20:00,
2013-06-04 07:25:00,58.1,46.8,29.95,ESE,112,0.0,0.0,66,0.00,,,0.00,WUHU21623XXSP,2013-06-04 12:25:00,
2013-06-04 07:30:00,58.1,47.2,29.95,NE,45,0.0,0.0,67,0.00,,,0.00,WUHU21623XXSP,2013-06-04 12:30:00,
2013-06-04 07:35:00,57.9,47.4,29.95,East,94,1.1,1.3,68,0.00,,,0.00,WUHU21623XXSP,2013-06-04 12:35:00,
2013-06-04 07:40:00,57.9,47.4,29.95,NE,45,1.8,1.8,68,0.00,,,0.00,WUHU21623XXSP,2013-06-04 12:40:00,
2013-06-04 07:45:00,57.9,47.4,29.96,NNE,22,0.9,1.8,68,0.00,,,0.00,WUHU21623XXSP,2013-06-04 12:45:00,
2013-06-04 07:50:00,57.9,47.4,29.96,North,0,0.9,1.1,68,0.00,,,0.00,WUHU21623XXSP,2013-06-04 12:50:00,
2013-06-04 07:55:00,57.9,47.4,29.96,ENE,67,0.9,2.0,68,0.00,,,0.00,WUHU21623XXSP,2013-06-04 12:55:00,
2013-06-04 08:00:00,57.9,47.4,29.97,ENE,66,1.8,2.9,68,0.00,,,0.00,WUHU21623XXSP,2013-06-04 13:00:00,
2013-06-04 08:05:00,57.9,47.4,29.97,SSE,151,1.7,2.9,68,0.00,,,0.00,WUHU21623XXSP,2013-06-04 13:05:00,
2013-06-04 08:10:00,58.1,47.6,29.97,East,87,1.4,2.7,68,0.00,,,0.00,WUHU21623XXSP,2013-06-04 13:10:00,
2013-06-04 08:15:00,57.9,47.8,29.97,NE,45,2.2,4.7,69,0.00,,,0.00,WUHU21623XXSP,2013-06-04 13:15:00,
2013-06-04 08:20:00,58.1,48.0,29.97,NE,47,1.0,4.7,69,0.00,,,0.00,WUHU21623XXSP,2013-06-04 13:20:00,
2013-06-04 08:25:00,58.1,48.0,29.97,ENE,70,2.6,4.3,69,0.00,,,0.00,WUHU21623XXSP,2013-06-04 13:25:00,
2013-06-04 08:30:00,58.1,48.0,29.98,ENE,61,1.9,4.3,69,0.00,,,0.00,WUHU21623XXSP,2013-06-04 13:30:00,
2013-06-04 08:35:00,58.3,48.1,29.99,ENE,74,2.6,3.8,69,0.00,,,0.00,WUHU21623XXSP,2013-06-04 13:35:00,
2013-06-04 08:40:00,58.3,48.1,29.98,ENE,63,2.3,3.8,69,0.00,,,0.00,WUHU21623XXSP,2013-06-04 13:40:00,
2013-06-04 08:45:00,58.3,48.1,29.99,ENE,67,3.8,3.8,69,0.00,,,0.00,WUHU21623XXSP,2013-06-04 13:45:00,
2013-06-04 08:50:00,58.3,48.1,29.99,ENE,62,1.8,3.8,69,0.00,,,0.00,WUHU21623XXSP,2013-06-04 13:50:00,
2013-06-04 08:55:00,58.3,48.6,29.98,NE,51,2.3,4.3,70,0.00,,,0.00,WUHU21623XXSP,2013-06-04 13:55:00,
2013-06-04 09:00:00,58.3,48.6,29.99,ENE,58,2.2,4.3,70,0.00,,,0.00,WUHU21623XXSP,2013-06-04 14:00:00,
2013-06-04 09:05:00,58.3,48.6,29.99,ENE,66,2.3,4.3,70,0.00,,,0.00,WUHU21623XXSP,2013-06-04 14:05:00,
2013-06-04 09:10:00,58.3,48.6,29.99,East,87,1.5,4.3,70,0.00,,,0.00,WUHU21623XXSP,2013-06-04 14:10:00,
2013-06-04 09:15:00,58.3,48.6,29.99,NE,45,1.1,3.8,70,0.00,,,0.00,WUHU21623XXSP,2013-06-04 14:15:00,
2013-06-04 09:20:00,58.5,49.1,29.99,SSE,150,1.0,3.8,71,0.00,,,0.00,WUHU21623XXSP,2013-06-04 14:20:00,
2013-06-04 09:25:00,58.6,49.6,30.00,North,9,2.0,3.1,72,0.00,,,0.00,WUHU21623XXSP,2013-06-04 14:25:00,
2013-06-04 09:30:00,58.6,49.6,30.00,NE,41,1.8,3.1,72,0.00,,,0.00,WUHU21623XXSP,2013-06-04 14:30:00,
2013-06-04 09:35:00,58.6,49.6,29.99,NE,38,1.2,3.1,72,0.00,,,0.00,WUHU21623XXSP,2013-06-04 14:35:00,
2013-06-04 09:40:00,58.8,49.8,29.99,ENE,67,2.0,5.1,72,0.00,,,0.00,WUHU21623XXSP,2013-06-04 14:40:00,
2013-06-04 09:45:00,58.8,49.8,29.99,NE,51,2.3,5.1,72,0.00,,,0.00,WUHU21623XXSP,2013-06-04 14:45:00,
2013-06-04 09:50:00,58.8,49.8,29.99,North,1,0.8,3.8,72,0.00,,,0.00,WUHU21623XXSP,2013-06-04 14:50:00,
2013-06-04 09:55:00,58.8,49.8,29.99,NE,45,6.0,6.0,72,0.00,,,0.00,WUHU21623XXSP,2013-06-04 14:55:00,
2013-06-04 10:00:00,58.8,49.8,29.99,ENE,67,3.6,8.7,72,0.00,,,0.00,WUHU21623XXSP,2013-06-04 15:00:00,
2013-06-04 10:05:00,58.8,49.8,29.99,ESE,110,1.0,6.9,72,0.00,,,0.00,WUHU21623XXSP,2013-06-04 15:05:00,
2013-06-04 10:10:00,58.8,49.8,29.99,ENE,67,3.8,6.9,72,0.00,,,0.00,WUHU21623XXSP,2013-06-04 15:10:00,
2013-06-04 10:15:00,58.8,49.8,29.99,ENE,67,2.5,6.3,72,0.00,,,0.00,WUHU21623XXSP,2013-06-04 15:15:00,
2013-06-04 10:21:00,58.8,49.8,30.00,ENE,67,7.4,8.7,72,0.00,,,0.00,WUHU21623XXSP,2013-06-04 15:21:00,
2013-06-04 10:26:00,59.2,50.2,30.00,ENE,72,2.8,8.7,72,0.00,,,0.00,WUHU21623XXSP,2013-06-04 15:26:00,
2013-06-04 10:31:00,59.4,50.4,30.00,ENE,67,3.4,8.1,72,0.00,,,0.00,WUHU21623XXSP,2013-06-04 15:31:00,
2013-06-04 10:36:00,59.4,50.4,30.01,NNE,22,1.6,6.9,72,0.00,,,0.00,WUHU21623XXSP,2013-06-04 15:36:00,
2013-06-04 10:41:00,59.5,50.5,30.02,ENE,67,2.9,5.8,72,0.00,,,0.00,WUHU21623XXSP,2013-06-04 15:41:00,
2013-06-04 10:46:00,59.5,50.5,30.03,ENE,60,3.1,6.3,72,0.00,,,0.00,WUHU21623XXSP,2013-06-04 15:46:00,
2013-06-04 10:51:00,59.4,50.5,30.03,NE,45,3.6,6.3,72,0.00,,,0.00,WUHU21623XXSP,2013-06-04 15:51:00,
2013-06-04 10:56:00,59.2,50.2,30.03,ENE,73,3.1,7.8,72,0.00,,,0.00,WUHU21623XXSP,2013-06-04 15:56:00,
2013-06-04 11:01:00,58.8,49.8,30.03,East,90,5.1,7.8,72,0.00,,,0.00,WUHU21623XXSP,2013-06-04 16:01:00,
2013-06-04 11:06:00,58.8,50.2,30.03,NE,45,0.9,8.9,73,0.00,,,0.00,WUHU21623XXSP,2013-06-04 16:06:00,
2013-06-04 11:11:00,58.8,50.2,30.03,ENE,70,3.5,8.9,73,0.00,,,0.00,WUHU21623XXSP,2013-06-04 16:11:00,
2013-06-04 11:16:00,58.8,50.5,30.03,NNE,22,4.9,6.7,74,0.00,,,0.00,WUHU21623XXSP,2013-06-04 16:16:00,
2013-06-04 11:21:00,58.6,50.7,30.03,ENE,71,3.3,6.9,75,0.02,,,0.02,WUHU21623XXSP,2013-06-04 16:21:00,
2013-06-04 11:26:00,58.6,50.5,30.02,ENE,71,3.3,6.9,75,0.02,,,0.02,WUHU21623XXSP,2013-06-04 16:26:00,
2013-06-04 11:31:00,58.3,50.7,30.02,East,85,4.7,8.5,76,0.02,,,0.02,WUHU21623XXSP,2013-06-04 16:31:00,
2013-06-04 11:37:00,58.3,51.1,30.02,SE,146,1.5,10.3,77,0.04,,,0.04,WUHU21623XXSP,2013-06-04 16:37:00,
2013-06-04 11:42:00,58.3,51.4,30.02,NNE,22,0.9,7.2,78,0.04,,,0.04,WUHU21623XXSP,2013-06-04 16:42:00,
2013-06-04 11:47:00,58.3,51.4,30.01,ENE,78,4.3,7.2,78,0.04,,,0.04,WUHU21623XXSP,2013-06-04 16:47:00,
2013-06-04 11:52:00,58.5,52.0,30.02,ENE,67,1.6,6.9,79,0.04,,,0.04,WUHU21623XXSP,2013-06-04 16:52:00,
2013-06-04 11:57:00,58.5,52.0,30.01,NNE,22,0.0,3.6,79,0.04,,,0.04,WUHU21623XXSP,2013-06-04 16:57:00,
2013-06-04 12:02:00,58.5,52.0,30.01,NNE,22,0.9,1.8,79,0.04,,,0.04,WUHU21623XXSP,2013-06-04 17:02:00,
2013-06-04 12:07:00,58.5,52.3,30.01,NE,45,1.3,4.5,80,0.04,,,0.04,WUHU21623XXSP,2013-06-04 17:07:00,
2013-06-04 12:12:00,58.6,52.5,30.00,NNW,337,0.7,4.5,80,0.04,,,0.04,WUHU21623XXSP,2013-06-04 17:12:00,
2013-06-04 12:17:00,58.6,52.8,30.00,WNW,292,1.1,4.5,81,0.04,,,0.04,WUHU21623XXSP,2013-06-04 17:17:00,
2013-06-04 12:22:00,58.8,53.3,30.00,ESE,112,0.0,1.1,82,0.02,,,0.04,WUHU21623XXSP,2013-06-04 17:22:00,
2013-06-04 12:27:00,58.8,53.7,30.00,NW,315,0.0,0.0,83,0.02,,,0.04,WUHU21623XXSP,2013-06-04 17:27:00,
2013-06-04 12:32:00,58.8,53.7,30.00,SSW,201,1.5,2.2,83,0.02,,,0.06,WUHU21623XXSP,2013-06-04 17:32:00,
2013-06-04 12:37:00,59.2,54.0,30.00,SE,135,2.5,2.5,83,0.02,,,0.06,WUHU21623XXSP,2013-06-04 17:37:00,
2013-06-04 12:42:00,59.4,54.5,30.00,SSE,167,3.7,11.4,84,0.02,,,0.06,WUHU21623XXSP,2013-06-04 17:42:00,
2013-06-04 12:47:00,59.5,54.4,29.99,SSE,160,1.7,11.4,83,0.02,,,0.06,WUHU21623XXSP,2013-06-04 17:47:00,
2013-06-04 12:52:00,59.7,54.2,29.99,ESE,121,1.3,3.4,82,0.02,,,0.06,WUHU21623XXSP,2013-06-04 17:52:00,
2013-06-04 12:57:00,60.1,54.3,29.99,SE,145,1.7,4.0,81,0.02,,,0.06,WUHU21623XXSP,2013-06-04 17:57:00,
2013-06-04 13:02:00,60.4,54.6,29.99,NE,52,1.0,4.0,81,0.02,,,0.06,WUHU21623XXSP,2013-06-04 18:02:00,
2013-06-04 13:07:00,60.6,54.8,29.99,SE,131,2.2,4.3,81,0.02,,,0.06,WUHU21623XXSP,2013-06-04 18:07:00,
2013-06-04 13:12:00,61.0,54.5,29.99,South,180,3.1,4.5,79,0.02,,,0.06,WUHU21623XXSP,2013-06-04 18:12:00,
2013-06-04 13:17:00,61.0,54.1,29.99,South,187,2.3,7.4,78,0.02,,,0.06,WUHU21623XXSP,2013-06-04 18:17:00,
2013-06-04 13:22:00,61.2,54.3,29.99,ESE,112,2.7,7.4,78,0.02,,,0.06,WUHU21623XXSP,2013-06-04 18:22:00,
2013-06-04 13:27:00,61.5,54.6,29.99,SSW,199,1.4,5.1,78,0.02,,,0.06,WUHU21623XXSP,2013-06-04 18:27:00,
2013-06-04 13:32:00,61.9,54.6,29.99,SSE,153,2.5,5.1,77,0.00,,,0.06,WUHU21623XXSP,2013-06-04 18:32:00,
2013-06-04 13:37:00,62.2,54.5,30.00,SE,144,3.0,5.4,76,0.00,,,0.06,WUHU21623XXSP,2013-06-04 18:37:00,
2013-06-04 13:42:00,62.4,54.3,30.00,SSE,154,3.6,6.5,75,0.00,,,0.06,WUHU21623XXSP,2013-06-04 18:42:00,
2013-06-04 13:47:00,62.6,54.5,29.99,SE,146,3.4,9.6,75,0.00,,,0.06,WUHU21623XXSP,2013-06-04 18:47:00,
2013-06-04 13:52:00,63.0,54.5,29.99,SSE,162,6.5,17.4,74,0.00,,,0.06,WUHU21623XXSP,2013-06-04 18:52:00,
2013-06-04 13:57:00,63.1,54.3,29.99,SE,125,3.3,17.4,73,0.00,,,0.06,WUHU21623XXSP,2013-06-04 18:57:00,
2013-06-04 14:02:00,63.3,54.1,30.00,South,180,6.3,8.7,72,0.00,,,0.06,WUHU21623XXSP,2013-06-04 19:02:00,
2013-06-04 14:07:00,63.3,54.1,29.99,SE,143,1.9,8.7,72,0.00,,,0.06,WUHU21623XXSP,2013-06-04 19:07:00,
2013-06-04 14:12:00,63.5,54.3,29.99,NE,45,1.6,9.2,72,0.00,,,0.06,WUHU21623XXSP,2013-06-04 19:12:00,
2013-06-04 14:17:00,63.3,54.1,29.99,SE,140,1.5,9.2,72,0.00,,,0.06,WUHU21623XXSP,2013-06-04 19:17:00,
2013-06-04 14:22:00,63.1,54.0,29.99,ESE,113,2.9,10.5,72,0.00,,,0.06,WUHU21623XXSP,2013-06-04 19:22:00,
2013-06-04 14:27:00,63.0,53.8,29.99,SE,138,3.1,10.5,72,0.00,,,0.06,WUHU21623XXSP,2013-06-04 19:27:00,
2013-06-04 14:32:00,62.8,53.2,29.98,South,185,4.7,11.9,71,0.00,,,0.06,WUHU21623XXSP,2013-06-04 19:32:00,
2013-06-04 14:37:00,62.8,53.6,29.98,South,170,4.2,11.9,72,0.00,,,0.06,WUHU21623XXSP,2013-06-04 19:37:00,
2013-06-04 14:42:00,62.8,53.2,29.98,ENE,64,2.1,11.9,71,0.00,,,0.06,WUHU21623XXSP,2013-06-04 19:42:00,
2013-06-04 14:47:00,62.8,53.2,29.98,SE,146,2.7,6.0,71,0.00,,,0.06,WUHU21623XXSP,2013-06-04 19:47:00,
2013-06-04 14:52:00,62.8,53.2,29.99,SSE,160,3.0,6.0,71,0.00,,,0.06,WUHU21623XXSP,2013-06-04 19:52:00,
2013-06-04 14:57:00,62.4,52.9,29.99,SSE,157,4.0,6.0,71,0.00,,,0.06,WUHU21623XXSP,2013-06-04 19:57:00,
2013-06-04 15:02:00,62.4,52.5,29.99,SSE,157,7.8,13.4,70,0.00,,,0.06,WUHU21623XXSP,2013-06-04 20:02:00,
2013-06-04 15:08:00,62.2,52.4,29.99,SSE,155,5.3,13.4,70,0.00,,,0.06,WUHU21623XXSP,2013-06-04 20:08:00,
2013-06-04 15:13:00,61.9,52.1,29.99,SSE,160,7.9,15.9,70,0.00,,,0.06,WUHU21623XXSP,2013-06-04 20:13:00,
2013-06-04 15:18:00,61.7,52.3,29.99,ENE,67,5.1,15.9,71,0.00,,,0.06,WUHU21623XXSP,2013-06-04 20:18:00,
2013-06-04 15:23:00,61.7,52.3,29.99,South,177,6.0,13.4,71,0.00,,,0.06,WUHU21623XXSP,2013-06-04 20:23:00,
2013-06-04 15:28:00,61.7,52.3,30.00,SE,135,7.6,14.1,71,0.00,,,0.06,WUHU21623XXSP,2013-06-04 20:28:00,
2013-06-04 15:33:00,61.7,52.3,30.00,South,180,2.9,14.1,71,0.00,,,0.06,WUHU21623XXSP,2013-06-04 20:33:00,
2013-06-04 15:38:00,61.5,52.1,30.00,South,182,8.0,13.6,71,0.00,,,0.06,WUHU21623XXSP,2013-06-04 20:38:00,
2013-06-04 15:43:00,61.5,52.1,30.00,SSE,159,4.3,13.6,71,0.00,,,0.06,WUHU21623XXSP,2013-06-04 20:43:00,
2013-06-04 15:48:00,61.5,52.1,30.00,South,169,4.4,12.3,71,0.00,,,0.06,WUHU21623XXSP,2013-06-04 20:48:00,
2013-06-04 15:53:00,61.5,51.7,30.01,South,180,4.1,12.3,70,0.00,,,0.06,WUHU21623XXSP,2013-06-04 20:53:00,
2013-06-04 15:58:00,61.5,52.1,30.00,SSE,154,2.2,8.1,71,0.00,,,0.06,WUHU21623XXSP,2013-06-04 20:58:00,
2013-06-04 16:03:00,61.3,51.9,30.01,SSE,149,2.9,7.6,71,0.00,,,0.06,WUHU21623XXSP,2013-06-04 21:03:00,
2013-06-04 16:08:00,61.2,51.4,30.01,South,177,1.1,7.6,70,0.00,,,0.06,WUHU21623XXSP,2013-06-04 21:08:00,
2013-06-04 16:13:00,61.2,51.4,30.01,South,180,2.0,3.8,70,0.00,,,0.06,WUHU21623XXSP,2013-06-04 21:13:00,
2013-06-04 16:18:00,61.0,51.2,30.00,South,180,4.5,5.1,70,0.00,,,0.06,WUHU21623XXSP,2013-06-04 21:18:00,
2013-06-04 16:23:00,61.0,51.2,30.00,SSW,192,2.2,6.0,70,0.00,,,0.06,WUHU21623XXSP,2013-06-04 21:23:00,
2013-06-04 16:28:00,61.0,51.2,30.01,SSE,158,2.4,6.0,70,0.00,,,0.06,WUHU21623XXSP,2013-06-04 21:28:00,
2013-06-04 16:33:00,61.0,50.8,30.00,SSE,152,1.9,4.5,69,0.00,,,0.06,WUHU21623XXSP,2013-06-04 21:33:00,
2013-06-04 16:38:00,61.0,50.8,30.00,East,90,1.6,3.1,69,0.00,,,0.06,WUHU21623XXSP,2013-06-04 21:38:00,
2013-06-04 16:43:00,61.0,50.8,30.00,South,188,1.3,2.5,69,0.00,,,0.06,WUHU21623XXSP,2013-06-04 21:43:00,
2013-06-04 16:48:00,60.6,50.5,30.00,SSE,157,2.0,2.9,69,0.00,,,0.06,WUHU21623XXSP,2013-06-04 21:48:00,
2013-06-04 16:53:00,60.6,50.1,30.00,NNW,337,1.8,2.9,68,0.00,,,0.06,WUHU21623XXSP,2013-06-04 21:53:00,
2013-06-04 16:58:00,60.6,50.1,30.00,SSE,156,1.4,4.0,68,0.00,,,0.06,WUHU21623XXSP,2013-06-04 21:58:00,
2013-06-04 17:03:00,60.6,50.5,30.00,NE,45,3.8,4.0,69,0.00,,,0.06,WUHU21623XXSP,2013-06-04 22:03:00,
2013-06-04 17:08:00,60.6,50.5,30.00,SSE,162,1.4,4.0,69,0.00,,,0.06,WUHU21623XXSP,2013-06-04 22:08:00,
2013-06-04 17:13:00,60.6,50.5,30.00,SE,136,2.2,4.0,69,0.00,,,0.06,WUHU21623XXSP,2013-06-04 22:13:00,
2013-06-04 17:18:00,60.6,50.5,30.00,ESE,116,1.8,3.6,69,0.00,,,0.06,WUHU21623XXSP,2013-06-04 22:18:00,
2013-06-04 17:23:00,60.6,50.9,30.00,SE,132,1.1,3.6,70,0.00,,,0.06,WUHU21623XXSP,2013-06-04 22:23:00,
2013-06-04 17:28:00,60.4,50.7,30.00,SSE,150,0.8,2.5,70,0.00,,,0.06,WUHU21623XXSP,2013-06-04 22:28:00,
2013-06-04 17:33:00,60.4,50.7,30.00,ESE,112,1.4,2.5,70,0.00,,,0.06,WUHU21623XXSP,2013-06-04 22:33:00,
2013-06-04 17:38:00,60.4,50.7,30.00,SSE,157,0.9,3.6,70,0.00,,,0.06,WUHU21623XXSP,2013-06-04 22:38:00,
2013-06-04 17:43:00,60.3,50.5,30.00,SSE,158,1.6,6.0,70,0.00,,,0.06,WUHU21623XXSP,2013-06-04 22:43:00,
2013-06-04 17:48:00,60.3,50.5,30.00,SW,225,2.5,6.0,70,0.00,,,0.06,WUHU21623XXSP,2013-06-04 22:48:00,
2013-06-04 17:53:00,60.1,50.4,30.01,South,177,2.2,3.6,70,0.00,,,0.06,WUHU21623XXSP,2013-06-04 22:53:00,
2013-06-04 17:58:00,60.1,49.9,30.00,SSE,157,4.3,6.7,69,0.00,,,0.06,WUHU21623XXSP,2013-06-04 22:58:00,
2013-06-04 18:03:00,60.1,49.9,30.00,SSW,202,3.4,6.7,69,0.00,,,0.06,WUHU21623XXSP,2013-06-04 23:03:00,
2013-06-04 18:08:00,59.9,49.8,30.00,SSW,202,2.9,5.8,69,0.00,,,0.06,WUHU21623XXSP,2013-06-04 23:08:00,
2013-06-04 18:13:00,59.9,49.8,30.00,SSE,157,2.2,5.8,69,0.00,,,0.06,WUHU21623XXSP,2013-06-04 23:13:00,
2013-06-04 18:18:00,59.7,49.6,30.00,South,180,6.0,6.0,69,0.00,,,0.06,WUHU21623XXSP,2013-06-04 23:18:00,
2013-06-04 18:23:00,59.7,49.6,30.00,South,169,2.2,6.0,69,0.00,,,0.06,WUHU21623XXSP,2013-06-04 23:23:00,
2013-06-04 18:28:00,59.7,49.6,29.99,SSE,149,3.7,7.4,69,0.00,,,0.06,WUHU21623XXSP,2013-06-04 23:28:00,
2013-06-04 18:33:00,59.7,49.6,29.99,SSE,165,1.3,7.8,69,0.00,,,0.06,WUHU21623XXSP,2013-06-04 23:33:00,
2013-06-04 18:38:00,59.7,50.0,29.99,South,178,1.9,7.8,70,0.00,,,0.06,WUHU21623XXSP,2013-06-04 23:38:00,
2013-06-04 18:43:00,59.5,49.8,30.00,South,180,8.1,8.1,70,0.00,,,0.06,WUHU21623XXSP,2013-06-04 23:43:00,
2013-06-04 18:49:00,59.5,49.8,29.99,SSE,157,2.7,8.1,70,0.00,,,0.06,WUHU21623XXSP,2013-06-04 23:49:00,
2013-06-04 18:54:00,59.4,50.0,30.00,South,175,3.2,8.7,71,0.00,,,0.06,WUHU21623XXSP,2013-06-04 23:54:00,
2013-06-04 18:59:00,59.4,50.0,30.00,South,169,4.5,10.5,71,0.00,,,0.06,WUHU21623XXSP,2013-06-04 23:59:00,
2013-06-04 19:04:00,59.2,50.2,29.99,SSE,167,4.6,10.5,72,0.00,,,0.06,WUHU21623XXSP,2013-06-05 00:04:00,
2013-06-04 19:09:00,59.2,50.5,29.99,SSE,153,4.3,8.7,73,0.00,,,0.06,WUHU21623XXSP,2013-06-05 00:09:00,
2013-06-04 19:14:00,58.8,50.2,29.99,South,180,11.6,11.6,73,0.00,,,0.06,WUHU21623XXSP,2013-06-05 00:14:00,
2013-06-04 19:19:00,58.8,50.9,29.99,SSE,148,3.1,11.6,75,0.00,,,0.06,WUHU21623XXSP,2013-06-05 00:19:00,
2013-06-04 19:24:00,58.8,50.9,29.99,SSE,148,3.2,5.8,75,0.00,,,0.06,WUHU21623XXSP,2013-06-05 00:24:00,
2013-06-04 19:29:00,58.6,51.1,30.00,SSE,157,3.6,5.8,76,0.00,,,0.06,WUHU21623XXSP,2013-06-05 00:29:00,
2013-06-04 19:34:00,58.5,51.3,30.00,SE,137,1.5,8.3,77,0.00,,,0.06,WUHU21623XXSP,2013-06-05 00:34:00,
2013-06-04 19:39:00,58.3,51.1,30.00,East,90,3.1,8.3,77,0.00,,,0.06,WUHU21623XXSP,2013-06-05 00:39:00,
2013-06-04 19:44:00,58.3,51.4,30.00,East,90,1.8,3.4,78,0.00,,,0.06,WUHU21623XXSP,2013-06-05 00:44:00,
2013-06-04 19:49:00,58.1,51.3,29.99,SSE,148,2.2,4.3,78,0.00,,,0.06,WUHU21623XXSP,2013-06-05 00:49:00,
2013-06-04 19:54:00,58.1,51.3,30.00,SSE,168,2.0,6.0,78,0.00,,,0.06,WUHU21623XXSP,2013-06-05 00:54:00,
2013-06-04 19:59:00,58.1,51.6,30.00,East,90,2.9,6.0,79,0.00,,,0.06,WUHU21623XXSP,2013-06-05 00:59:00,
2013-06-04 20:04:00,57.9,51.4,30.00,SW,225,2.2,6.9,79,0.00,,,0.06,WUHU21623XXSP,2013-06-05 01:04:00,
2013-06-04 20:09:00,57.9,51.4,30.00,SE,133,2.0,7.4,79,0.00,,,0.06,WUHU21623XXSP,2013-06-05 01:09:00,
2013-06-04 20:14:00,57.9,51.4,30.00,East,99,1.1,7.4,79,0.00,,,0.06,WUHU21623XXSP,2013-06-05 01:14:00,
2013-06-04 20:19:00,57.9,51.4,30.01,NE,45,2.5,2.7,79,0.00,,,0.06,WUHU21623XXSP,2013-06-05 01:19:00,
2013-06-04 20:24:00,57.9,51.4,30.00,West,270,0.9,4.7,79,0.00,,,0.06,WUHU21623XXSP,2013-06-05 01:24:00,
2013-06-04 20:29:00,57.9,51.4,30.01,SSE,155,0.8,4.7,79,0.00,,,0.06,WUHU21623XXSP,2013-06-05 01:29:00,
2013-06-04 20:34:00,57.7,51.6,30.01,SSE,148,1.8,3.1,80,0.00,,,0.06,WUHU21623XXSP,2013-06-05 01:34:00,
2013-06-04 20:39:00,57.7,51.6,30.01,SE,145,0.8,6.3,80,0.00,,,0.06,WUHU21623XXSP,2013-06-05 01:39:00,
2013-06-04 20:44:00,57.6,51.4,30.01,ESE,106,1.7,6.3,80,0.00,,,0.06,WUHU21623XXSP,2013-06-05 01:44:00,
2013-06-04 20:49:00,57.6,51.8,30.02,SE,124,2.8,3.6,81,0.00,,,0.06,WUHU21623XXSP,2013-06-05 01:49:00,
2013-06-04 20:54:00,57.6,51.8,30.02,East,79,0.9,3.6,81,0.00,,,0.06,WUHU21623XXSP,2013-06-05 01:54:00,
2013-06-04 20:59:00,57.6,51.8,30.03,ENE,67,3.6,3.6,81,0.00,,,0.06,WUHU21623XXSP,2013-06-05 01:59:00,
2013-06-04 21:04:00,57.4,51.6,30.03,NNE,32,2.2,3.6,81,0.00,,,0.06,WUHU21623XXSP,2013-06-05 02:04:00,
2013-06-04 21:09:00,57.0,50.9,30.03,North,7,0.8,3.4,80,0.02,,,0.08,WUHU21623XXSP,2013-06-05 02:09:00,
2013-06-04 21:14:00,57.0,50.9,30.04,North,2,1.9,4.5,80,0.02,,,0.08,WUHU21623XXSP,2013-06-05 02:14:00,
2013-06-04 21:19:00,56.8,51.0,30.04,East,80,2.8,4.5,81,0.02,,,0.08,WUHU21623XXSP,2013-06-05 02:19:00,
2013-06-04 21:24:00,56.7,50.9,30.04,ENE,67,4.5,6.3,81,0.06,,,0.12,WUHU21623XXSP,2013-06-05 02:24:00,
2013-06-04 21:29:00,56.5,51.0,30.03,ENE,68,2.3,6.3,82,0.08,,,0.14,WUHU21623XXSP,2013-06-05 02:29:00,
2013-06-04 21:34:00,56.3,50.8,30.03,NE,45,3.3,6.5,82,0.12,,,0.18,WUHU21623XXSP,2013-06-05 02:34:00,
2013-06-04 21:39:00,55.9,50.5,30.04,NNE,25,1.5,6.5,82,0.14,,,0.20,WUHU21623XXSP,2013-06-05 02:39:00,
2013-06-04 21:44:00,55.9,50.5,30.03,NE,40,2.4,4.5,82,0.14,,,0.20,WUHU21623XXSP,2013-06-05 02:44:00,
2013-06-04 21:49:00,55.9,50.5,30.03,ENE,67,2.2,4.5,82,0.16,,,0.22,WUHU21623XXSP,2013-06-05 02:49:00,
2013-06-04 21:54:00,55.8,50.6,30.03,ENE,76,4.1,7.8,83,0.16,,,0.22,WUHU21623XXSP,2013-06-05 02:54:00,
2013-06-04 21:59:00,55.6,50.4,30.03,ENE,65,3.2,7.8,83,0.16,,,0.22,WUHU21623XXSP,2013-06-05 02:59:00,
2013-06-04 22:04:00,55.6,50.4,30.03,ENE,63,3.4,6.0,83,0.14,,,0.22,WUHU21623XXSP,2013-06-05 03:04:00,
2013-06-04 22:09:00,55.4,50.3,30.03,SE,135,6.5,6.5,83,0.16,,,0.24,WUHU21623XXSP,2013-06-05 03:09:00,
2013-06-04 22:14:00,55.4,50.3,30.02,ENE,73,2.5,8.9,83,0.16,,,0.24,WUHU21623XXSP,2013-06-05 03:14:00,
2013-06-04 22:19:00,55.2,50.4,30.02,North,3,1.8,8.9,84,0.16,,,0.24,WUHU21623XXSP,2013-06-05 03:19:00,
2013-06-04 22:24:00,55.2,50.7,30.02,ENE,57,1.6,6.3,85,0.12,,,0.24,WUHU21623XXSP,2013-06-05 03:24:00,
2013-06-04 22:29:00,55.2,51.0,30.02,NE,51,1.9,3.8,86,0.10,,,0.24,WUHU21623XXSP,2013-06-05 03:29:00,
2013-06-04 22:34:00,55.0,50.9,30.02,SE,134,2.2,3.8,86,0.06,,,0.24,WUHU21623XXSP,2013-06-05 03:34:00,
2013-06-04 22:39:00,55.0,50.9,30.02,ENE,69,2.3,3.8,86,0.04,,,0.24,WUHU21623XXSP,2013-06-05 03:39:00,
2013-06-04 22:44:00,54.9,51.0,30.02,SSE,158,2.2,5.8,87,0.04,,,0.24,WUHU21623XXSP,2013-06-05 03:44:00,
2013-06-04 22:49:00,54.9,51.0,30.02,NW,315,0.0,5.8,87,0.02,,,0.24,WUHU21623XXSP,2013-06-05 03:49:00,
2013-06-04 22:54:00,54.7,50.8,30.01,South,169,1.3,4.5,87,0.02,,,0.24,WUHU21623XXSP,2013-06-05 03:54:00,
2013-06-04 22:59:00,54.7,51.2,30.01,SSE,148,1.5,3.6,88,0.02,,,0.24,WUHU21623XXSP,2013-06-05 03:59:00,
2013-06-04 23:01:00,54.7,51.2,30.01,ESE,112,0.9,3.6,88,0.02,,,0.24,WUHU21623XXSP,2013-06-05 04:01:00,
2013-06-04 23:02:00,54.7,51.2,30.01,ENE,62,0.9,3.6,88,0.02,,,0.24,WUHU21623XXSP,2013-06-05 04:02:00,
2013-06-04 23:07:00,54.7,51.2,30.01,NE,45,0.7,2.5,88,0.02,,,0.24,WUHU21623XXSP,2013-06-05 04:07:00,
2013-06-04 23:12:00,54.5,51.3,30.01,ENE,62,1.8,5.1,89,0.00,,,0.24,WUHU21623XXSP,2013-06-05 04:12:00,
2013-06-04 23:17:00,54.5,51.3,30.00,SE,146,1.3,5.1,89,0.00,,,0.24,WUHU21623XXSP,2013-06-05 04:17:00,
2013-06-04 23:22:00,54.5,51.3,30.00,ENE,67,1.3,3.1,89,0.00,,,0.24,WUHU21623XXSP,2013-06-05 04:22:00,
2013-06-04 23:27:00,54.5,51.3,30.00,SSE,157,3.6,5.4,89,0.00,,,0.24,WUHU21623XXSP,2013-06-05 04:27:00,
2013-06-04 23:32:00,54.5,51.6,30.00,SE,140,2.7,5.4,90,0.00,,,0.24,WUHU21623XXSP,2013-06-05 04:32:00,
2013-06-04 23:37:00,54.5,51.6,30.00,SSE,163,1.8,4.3,90,0.00,,,0.24,WUHU21623XXSP,2013-06-05 04:37:00,
2013-06-04 23:42:00,54.5,51.6,30.00,SE,144,1.5,4.0,90,0.00,,,0.24,WUHU21623XXSP,2013-06-05 04:42:00,
2013-06-04 23:47:00,54.5,51.6,30.00,South,180,1.1,2.2,90,0.00,,,0.24,WUHU21623XXSP,2013-06-05 04:47:00,
2013-06-04 23:52:00,54.3,51.4,30.00,NE,45,3.8,4.5,90,0.00,,,0.24,WUHU21623XXSP,2013-06-05 04:52:00,
2013-06-04 23:57:00,54.3,51.4,30.00,SE,135,0.0,4.5,90,0.00,,,0.24,WUHU21623XXSP,2013-06-05 04:57:00,